TimeEDT,TemperatureF,Dew PointF,Humidity,Sea Level PressureIn,VisibilityMPH,Wind Direction,Wind SpeedMPH,Gust SpeedMPH,PrecipitationIn,Events,Conditions,WindDirDegrees,DateUTC
12:53 AM,77.0,64.9,66,30.11,10.0,East,12.7,-,N/A,,Clear,80,2013-04-25 04:53:00
1:53 AM,77.0,64.9,66,30.10,10.0,East,10.4,-,N/A,,Clear,80,2013-04-25 05:53:00
2:53 AM,77.0,64.0,64,30.09,10.0,East,9.2,-,N/A,,Clear,80,2013-04-25 06:53:00
3:53 AM,77.0,64.0,64,30.09,10.0,East,11.5,-,N/A,,Clear,100,2013-04-25 07:53:00
4:53 AM,77.0,64.0,64,30.08,10.0,East,11.5,-,N/A,,Clear,90,2013-04-25 08:53:00
5:53 AM,77.0,64.0,64,30.09,10.0,East,11.5,21.9,N/A,,Clear,90,2013-04-25 09:53:00
6:53 AM,75.9,63.0,64,30.11,10.0,ENE,6.9,-,N/A,,Clear,70,2013-04-25 10:53:00
7:53 AM,77.0,64.0,64,30.13,10.0,ENE,4.6,-,N/A,,Clear,70,2013-04-25 11:53:00
8:53 AM,79.0,62.1,56,30.14,10.0,East,8.1,-,N/A,,Clear,90,2013-04-25 12:53:00
9:53 AM,81.0,63.0,54,30.16,10.0,East,11.5,-,N/A,,Clear,90,2013-04-25 13:53:00
10:53 AM,82.0,64.0,54,30.17,10.0,East,9.2,-,N/A,,Partly Cloudy,90,2013-04-25 14:53:00
11:53 AM,82.9,64.0,53,30.17,10.0,East,13.8,-,N/A,,Mostly Cloudy,100,2013-04-25 15:53:00
12:53 PM,84.9,61.0,44,30.16,10.0,NNE,11.5,-,N/A,,Partly Cloudy,20,2013-04-25 16:53:00
1:53 PM,84.9,59.0,41,30.17,10.0,NNE,11.5,18.4,N/A,,Clear,30,2013-04-25 17:53:00
2:53 PM,84.0,61.0,46,30.16,10.0,NNE,13.8,18.4,N/A,,Clear,20,2013-04-25 18:53:00
3:53 PM,82.9,61.0,47,30.13,10.0,NNE,10.4,-,N/A,,Clear,20,2013-04-25 19:53:00
4:53 PM,82.9,63.0,51,30.12,10.0,NE,9.2,-,N/A,,Clear,40,2013-04-25 20:53:00
5:53 PM,82.9,64.0,53,30.12,10.0,NNE,11.5,-,N/A,,Clear,30,2013-04-25 21:53:00
6:53 PM,82.0,63.0,52,30.12,10.0,Variable,5.8,-,N/A,,Clear,0,2013-04-25 22:53:00
7:53 PM,79.0,64.0,60,30.14,10.0,NNE,6.9,-,N/A,,Clear,30,2013-04-25 23:53:00
8:53 PM,79.0,62.1,56,30.16,10.0,ENE,5.8,-,N/A,,Mostly Cloudy,60,2013-04-26 00:53:00
9:53 PM,78.1,63.0,60,30.18,10.0,East,8.1,-,N/A,,Partly Cloudy,80,2013-04-26 01:53:00
10:53 PM,77.0,63.0,62,30.19,10.0,East,9.2,-,N/A,,Scattered Clouds,80,2013-04-26 02:53:00
11:53 PM,77.0,63.0,62,30.19,10.0,East,8.1,-,N/A,,Clear,80,2013-04-26 03:53:00